contact:dominique.lefevre@mio.osupytheas.fr, maurice.libes@osupytheas.fr, didier.mallarino@osupytheas.fr
Project:EMSO http://www.emso-fr.org/EMSO-France
Depth: 2436.0 m
Title:EMSO Ligure Ouest : Data MII capteur MICROCAT
DateTime_Computer,Latitude,Longitude,Temperature,Conductivity,Pressure,DateTime_Instrument
DateTime_Computer,Latitude,Longitude,degC,S m-1,dbar,DateTime_Instrument
2020-09-13T00:01:38Z,42.805,6.029,13.2976,4.59976,2470.11,2020-9-13T02:02:29Z
2020-09-13T00:04:39Z,42.805,6.029,13.2974,4.59978,2470.063,2020-9-13T02:05:31Z
2020-09-13T00:07:43Z,42.805,6.029,13.2971,4.59978,2470.087,2020-9-13T02:08:34Z
2020-09-13T00:10:44Z,42.805,6.029,13.2975,4.59977,2470.11,2020-9-13T02:11:36Z
2020-09-13T00:13:47Z,42.805,6.029,13.2975,4.59978,2470.063,2020-9-13T02:14:38Z
2020-09-13T00:16:50Z,42.805,6.029,13.2977,4.59976,2470.087,2020-9-13T02:17:42Z
2020-09-13T00:19:51Z,42.805,6.029,13.2974,4.59976,2470.11,2020-9-13T02:20:43Z
2020-09-13T00:22:56Z,42.805,6.029,13.2971,4.59976,2470.11,2020-9-13T02:23:47Z
2020-09-13T00:26:00Z,42.805,6.029,13.2976,4.59976,2470.087,2020-9-13T02:26:52Z
2020-09-13T00:29:02Z,42.805,6.029,13.2976,4.59976,2470.077,2020-9-13T02:29:53Z
2020-09-13T00:32:05Z,42.805,6.029,13.2976,4.59976,2470.087,2020-9-13T02:32:56Z
2020-09-13T00:35:08Z,42.805,6.029,13.2974,4.59976,2470.087,2020-9-13T02:35:59Z
2020-09-13T00:38:11Z,42.805,6.029,13.2974,4.59976,2470.11,2020-9-13T02:39:03Z
2020-09-13T00:41:15Z,42.805,6.029,13.2971,4.59976,2470.096,2020-9-13T02:42:06Z
2020-09-13T00:44:16Z,42.805,6.029,13.2974,4.59976,2470.11,2020-9-13T02:45:08Z
2020-09-13T00:47:18Z,42.805,6.029,13.2976,4.59976,2470.087,2020-9-13T02:48:09Z
2020-09-13T00:50:22Z,42.805,6.029,13.2972,4.59975,2470.11,2020-9-13T02:51:13Z
2020-09-13T00:53:24Z,42.805,6.029,13.2974,4.59976,2470.156,2020-9-13T02:54:15Z
2020-09-13T00:56:26Z,42.805,6.029,13.2976,4.59975,2470.087,2020-9-13T02:57:17Z
2020-09-13T00:59:29Z,42.805,6.029,13.2973,4.59978,2470.063,2020-9-13T03:00:20Z
2020-09-13T01:02:31Z,42.805,6.029,13.2975,4.59975,2470.1,2020-9-13T03:03:22Z
2020-09-13T01:05:34Z,42.805,6.029,13.2972,4.59976,2470.087,2020-9-13T03:06:26Z
2020-09-13T01:08:39Z,42.805,6.029,13.2975,4.59976,2470.077,2020-9-13T03:09:30Z
2020-09-13T01:11:43Z,42.805,6.029,13.2975,4.59976,2470.087,2020-9-13T03:12:34Z
2020-09-13T01:14:46Z,42.805,6.029,13.2974,4.59975,2470.1,2020-9-13T03:15:37Z
2020-09-13T01:17:49Z,42.805,6.029,13.2975,4.59976,2470.147,2020-9-13T03:18:41Z
2020-09-13T01:20:51Z,42.805,6.029,13.2977,4.59976,2470.1,2020-9-13T03:21:42Z
2020-09-13T01:23:54Z,42.805,6.029,13.2973,4.59975,2470.1,2020-9-13T03:24:46Z
2020-09-13T01:26:58Z,42.805,6.029,13.2977,4.59975,2470.1,2020-9-13T03:27:50Z
2020-09-13T01:30:02Z,42.805,6.029,13.2973,4.59975,2470.133,2020-9-13T03:30:53Z
2020-09-13T01:33:05Z,42.805,6.029,13.2972,4.59975,2470.11,2020-9-13T03:33:57Z
2020-09-13T01:36:07Z,42.805,6.029,13.2974,4.59977,2470.133,2020-9-13T03:36:58Z
2020-09-13T01:39:09Z,42.805,6.029,13.2976,4.59977,2470.11,2020-9-13T03:40:00Z
2020-09-13T01:42:12Z,42.805,6.029,13.2975,4.59975,2470.171,2020-9-13T03:43:03Z
2020-09-13T01:45:15Z,42.805,6.029,13.2974,4.59978,2470.087,2020-9-13T03:46:07Z
2020-09-13T01:48:18Z,42.805,6.029,13.2977,4.59974,2470.147,2020-9-13T03:49:10Z
2020-09-13T01:51:22Z,42.805,6.029,13.2973,4.59976,2470.133,2020-9-13T03:52:13Z
2020-09-13T01:54:25Z,42.805,6.029,13.2972,4.59976,2470.11,2020-9-13T03:55:16Z
2020-09-13T02:00:32Z,42.805,6.029,13.2974,4.59975,2470.11,2020-9-13T04:01:23Z
2020-09-13T02:03:35Z,42.805,6.029,13.2975,4.59975,2470.133,2020-9-13T04:04:26Z
2020-09-13T02:06:39Z,42.805,6.029,13.2974,4.59976,2470.124,2020-9-13T04:07:30Z
2020-09-13T02:09:42Z,42.805,6.029,13.2975,4.59976,2470.147,2020-9-13T04:10:33Z
2020-09-13T02:12:46Z,42.805,6.029,13.2973,4.59975,2470.133,2020-9-13T04:13:38Z
2020-09-13T02:15:48Z,42.805,6.029,13.2974,4.59976,2470.124,2020-9-13T04:16:39Z
2020-09-13T02:18:51Z,42.805,6.029,13.2974,4.59978,2470.11,2020-9-13T04:19:42Z
2020-09-13T02:21:54Z,42.805,6.029,13.2972,4.59974,2470.147,2020-9-13T04:22:46Z
2020-09-13T02:24:56Z,42.805,6.029,13.2972,4.59975,2470.11,2020-9-13T04:25:48Z
2020-09-13T02:28:01Z,42.805,6.029,13.2976,4.59976,2470.11,2020-9-13T04:28:53Z
2020-09-13T02:31:04Z,42.805,6.029,13.2974,4.59975,2470.133,2020-9-13T04:31:56Z
2020-09-13T02:34:08Z,42.805,6.029,13.2972,4.59975,2470.11,2020-9-13T04:35:00Z
2020-09-13T02:37:11Z,42.805,6.029,13.2973,4.59975,2470.11,2020-9-13T04:38:03Z
2020-09-13T02:40:15Z,42.805,6.029,13.2973,4.59976,2470.11,2020-9-13T04:41:06Z
2020-09-13T02:43:18Z,42.805,6.029,13.2974,4.59976,2470.133,2020-9-13T04:44:09Z
2020-09-13T02:46:22Z,42.805,6.029,13.2971,4.59976,2470.11,2020-9-13T04:47:13Z
2020-09-13T02:49:23Z,42.805,6.029,13.2973,4.59976,2470.133,2020-9-13T04:50:14Z
2020-09-13T02:52:27Z,42.805,6.029,13.2971,4.59976,2470.11,2020-9-13T04:53:18Z
2020-09-13T02:55:30Z,42.805,6.029,13.2974,4.59976,2470.11,2020-9-13T04:56:21Z
2020-09-13T02:58:33Z,42.805,6.029,13.2971,4.59976,2470.133,2020-9-13T04:59:25Z
2020-09-13T03:01:37Z,42.805,6.029,13.2974,4.59976,2470.119,2020-9-13T05:02:28Z
2020-09-13T03:04:38Z,42.805,6.029,13.2974,4.59974,2470.11,2020-9-13T05:05:30Z
2020-09-13T03:07:42Z,42.805,6.029,13.2973,4.59976,2470.11,2020-9-13T05:08:34Z
2020-09-13T03:10:45Z,42.805,6.029,13.2974,4.59976,2470.147,2020-9-13T05:11:37Z
2020-09-13T03:13:49Z,42.805,6.029,13.2971,4.59976,2470.147,2020-9-13T05:14:40Z
2020-09-13T03:16:52Z,42.805,6.029,13.2972,4.59976,2470.11,2020-9-13T05:17:43Z
2020-09-13T03:19:56Z,42.805,6.029,13.2971,4.59976,2470.133,2020-9-13T05:20:47Z
2020-09-13T03:22:57Z,42.805,6.029,13.2971,4.59976,2470.11,2020-9-13T05:23:48Z
2020-09-13T03:26:00Z,42.805,6.029,13.2976,4.59976,2470.124,2020-9-13T05:26:51Z
2020-09-13T03:29:02Z,42.805,6.029,13.2972,4.59976,2470.11,2020-9-13T05:29:54Z
2020-09-13T03:32:06Z,42.805,6.029,13.2974,4.59978,2470.133,2020-9-13T05:32:58Z
2020-09-13T03:35:10Z,42.805,6.029,13.2977,4.59976,2470.11,2020-9-13T05:36:01Z
2020-09-13T03:38:15Z,42.805,6.029,13.2971,4.59976,2470.133,2020-9-13T05:39:06Z
2020-09-13T03:41:19Z,42.805,6.029,13.2970,4.59976,2470.133,2020-9-13T05:42:10Z
2020-09-13T03:44:23Z,42.805,6.029,13.2971,4.59976,2470.133,2020-9-13T05:45:14Z
2020-09-13T03:47:27Z,42.805,6.029,13.2974,4.59976,2470.133,2020-9-13T05:48:19Z
2020-09-13T03:50:30Z,42.805,6.029,13.2974,4.59975,2470.133,2020-9-13T05:51:21Z
2020-09-13T03:53:33Z,42.805,6.029,13.2973,4.59976,2470.133,2020-9-13T05:54:25Z
2020-09-13T03:56:38Z,42.805,6.029,13.2973,4.59976,2470.133,2020-9-13T05:57:30Z
2020-09-13T03:59:40Z,42.805,6.029,13.2976,4.59975,2470.147,2020-9-13T06:00:32Z
2020-09-13T04:02:45Z,42.805,6.029,13.2972,4.59976,2470.124,2020-9-13T06:03:37Z
2020-09-13T04:05:50Z,42.805,6.029,13.2977,4.59978,2470.133,2020-9-13T06:06:41Z
2020-09-13T04:08:54Z,42.805,6.029,13.2974,4.59975,2470.11,2020-9-13T06:09:46Z
2020-09-13T04:11:58Z,42.805,6.029,13.2972,4.59976,2470.124,2020-9-13T06:12:50Z
2020-09-13T04:15:02Z,42.805,6.029,13.2974,4.59975,2470.096,2020-9-13T06:15:53Z
2020-09-13T04:18:05Z,42.805,6.029,13.2974,4.59976,2470.133,2020-9-13T06:18:56Z
2020-09-13T04:21:09Z,42.805,6.029,13.2974,4.59976,2470.133,2020-9-13T06:22:01Z
2020-09-13T04:24:13Z,42.805,6.029,13.2971,4.59976,2470.171,2020-9-13T06:25:05Z
2020-09-13T04:27:17Z,42.805,6.029,13.2973,4.59978,2470.156,2020-9-13T06:28:08Z
2020-09-13T04:30:20Z,42.805,6.029,13.2971,4.59976,2470.11,2020-9-13T06:31:12Z
2020-09-13T04:33:24Z,42.805,6.029,13.2977,4.59977,2470.147,2020-9-13T06:34:15Z
2020-09-13T04:36:26Z,42.805,6.029,13.2974,4.59976,2470.156,2020-9-13T06:37:17Z
2020-09-13T04:39:30Z,42.805,6.029,13.2974,4.59975,2470.133,2020-9-13T06:40:22Z
2020-09-13T04:42:34Z,42.805,6.029,13.2970,4.59976,2470.156,2020-9-13T06:43:26Z
2020-09-13T04:45:36Z,42.805,6.029,13.2975,4.59977,2470.11,2020-9-13T06:46:27Z
2020-09-13T04:48:39Z,42.805,6.029,13.2972,4.59976,2470.1,2020-9-13T06:49:31Z
2020-09-13T04:51:42Z,42.805,6.029,13.2974,4.59976,2470.156,2020-9-13T06:52:34Z
2020-09-13T04:54:44Z,42.805,6.029,13.2974,4.59976,2470.156,2020-9-13T06:55:35Z
2020-09-13T04:57:47Z,42.805,6.029,13.2973,4.59976,2470.124,2020-9-13T06:58:39Z
2020-09-13T05:00:49Z,42.805,6.029,13.2973,4.59976,2470.156,2020-9-13T07:01:40Z
2020-09-13T05:03:50Z,42.805,6.029,13.2975,4.59976,2470.147,2020-9-13T07:04:42Z
2020-09-13T05:06:52Z,42.805,6.029,13.2970,4.59976,2470.124,2020-9-13T07:07:43Z
2020-09-13T05:09:53Z,42.805,6.029,13.2971,4.59976,2470.11,2020-9-13T07:10:44Z
2020-09-13T05:12:54Z,42.805,6.029,13.2973,4.59976,2470.11,2020-9-13T07:13:46Z
2020-09-13T05:15:57Z,42.805,6.029,13.2974,4.59976,2470.156,2020-9-13T07:16:49Z
2020-09-13T05:19:01Z,42.805,6.029,13.2971,4.59976,2470.133,2020-9-13T07:19:53Z
2020-09-13T05:22:03Z,42.805,6.029,13.2979,4.59976,2470.11,2020-9-13T07:22:54Z
2020-09-13T05:25:08Z,42.805,6.029,13.2971,4.59976,2470.11,2020-9-13T07:25:59Z
2020-09-13T05:28:09Z,42.805,6.029,13.2973,4.59978,2470.133,2020-9-13T07:29:00Z
2020-09-13T05:31:14Z,42.805,6.029,13.2973,4.59976,2470.124,2020-9-13T07:32:05Z
2020-09-13T05:34:17Z,42.805,6.029,13.2976,4.59978,2470.124,2020-9-13T07:35:09Z
2020-09-13T05:37:19Z,42.805,6.029,13.2974,4.59976,2470.133,2020-9-13T07:38:11Z
2020-09-13T05:40:24Z,42.805,6.029,13.2972,4.59975,2470.087,2020-9-13T07:41:15Z
2020-09-13T05:43:28Z,42.805,6.029,13.2971,4.59976,2470.133,2020-9-13T07:44:20Z
2020-09-13T05:46:32Z,42.805,6.029,13.2976,4.59976,2470.11,2020-9-13T07:47:23Z
2020-09-13T05:49:35Z,42.805,6.029,13.2973,4.59977,2470.124,2020-9-13T07:50:26Z
2020-09-13T05:52:38Z,42.805,6.029,13.2975,4.59976,2470.147,2020-9-13T07:53:30Z
2020-09-13T05:55:43Z,42.805,6.029,13.2974,4.59975,2470.124,2020-9-13T07:56:34Z
2020-09-13T05:58:46Z,42.805,6.029,13.2976,4.59975,2470.156,2020-9-13T07:59:37Z
2020-09-13T06:01:48Z,42.805,6.029,13.2974,4.59976,2470.11,2020-9-13T08:02:39Z
2020-09-13T06:04:49Z,42.805,6.029,13.2972,4.59976,2470.133,2020-9-13T08:05:40Z
2020-09-13T06:07:53Z,42.805,6.029,13.2976,4.59976,2470.11,2020-9-13T08:08:44Z
2020-09-13T06:10:56Z,42.805,6.029,13.2973,4.59976,2470.124,2020-9-13T08:11:47Z
2020-09-13T06:13:57Z,42.805,6.029,13.2974,4.59975,2470.11,2020-9-13T08:14:49Z
2020-09-13T06:16:58Z,42.805,6.029,13.2974,4.59975,2470.133,2020-9-13T08:17:50Z
2020-09-13T06:20:03Z,42.805,6.029,13.2976,4.59975,2470.1,2020-9-13T08:20:55Z
2020-09-13T06:23:05Z,42.805,6.029,13.2974,4.59976,2470.147,2020-9-13T08:23:56Z
2020-09-13T06:26:08Z,42.805,6.029,13.2977,4.59976,2470.11,2020-9-13T08:27:00Z
2020-09-13T06:29:12Z,42.805,6.029,13.2977,4.59976,2470.1,2020-9-13T08:30:03Z
2020-09-13T06:32:16Z,42.805,6.029,13.2972,4.59975,2470.119,2020-9-13T08:33:07Z
2020-09-13T06:35:19Z,42.805,6.029,13.2975,4.59976,2470.124,2020-9-13T08:36:11Z
2020-09-13T06:38:21Z,42.805,6.029,13.2970,4.59975,2470.1,2020-9-13T08:39:13Z
2020-09-13T06:41:25Z,42.805,6.029,13.2973,4.59975,2470.077,2020-9-13T08:42:16Z
2020-09-13T06:44:27Z,42.805,6.029,13.2976,4.59975,2470.063,2020-9-13T08:45:19Z
2020-09-13T06:47:29Z,42.805,6.029,13.2971,4.59975,2470.133,2020-9-13T08:48:20Z
2020-09-13T06:50:32Z,42.805,6.029,13.2976,4.59976,2470.087,2020-9-13T08:51:24Z
2020-09-13T06:53:36Z,42.805,6.029,13.2973,4.59974,2470.087,2020-9-13T08:54:27Z
2020-09-13T06:56:39Z,42.805,6.029,13.2974,4.59975,2470.1,2020-9-13T08:57:30Z
2020-09-13T06:59:42Z,42.805,6.029,13.2975,4.59975,2470.063,2020-9-13T09:00:33Z
2020-09-13T07:02:45Z,42.805,6.029,13.2973,4.59974,2470.11,2020-9-13T09:03:36Z
2020-09-13T07:05:47Z,42.805,6.029,13.2968,4.59974,2470.077,2020-9-13T09:06:38Z
2020-09-13T07:08:49Z,42.805,6.029,13.2974,4.59974,2470.087,2020-9-13T09:09:40Z
2020-09-13T07:11:53Z,42.805,6.029,13.2973,4.59976,2470.063,2020-9-13T09:12:44Z
2020-09-13T07:14:58Z,42.805,6.029,13.2968,4.59976,2470.087,2020-9-13T09:15:49Z
2020-09-13T07:18:02Z,42.805,6.029,13.2974,4.59973,2470.124,2020-9-13T09:18:54Z
2020-09-13T07:21:06Z,42.805,6.029,13.2974,4.59973,2470.073,2020-9-13T09:21:58Z
2020-09-13T07:24:09Z,42.805,6.029,13.2973,4.59976,2470.077,2020-9-13T09:25:01Z
2020-09-13T07:27:13Z,42.805,6.029,13.2976,4.59975,2470.1,2020-9-13T09:28:04Z
2020-09-13T07:30:17Z,42.805,6.029,13.2972,4.59976,2470.063,2020-9-13T09:31:08Z
2020-09-13T07:33:21Z,42.805,6.029,13.2973,4.59974,2470.087,2020-9-13T09:34:13Z
2020-09-13T07:36:26Z,42.805,6.029,13.2973,4.59975,2470.063,2020-9-13T09:37:17Z
2020-09-13T07:39:30Z,42.805,6.029,13.2974,4.59973,2470.077,2020-9-13T09:40:22Z
2020-09-13T07:42:33Z,42.805,6.029,13.2973,4.59975,2470.11,2020-9-13T09:43:25Z
2020-09-13T07:45:37Z,42.805,6.029,13.2973,4.59976,2470.11,2020-9-13T09:46:28Z
2020-09-13T07:48:40Z,42.805,6.029,13.2974,4.59974,2470.063,2020-9-13T09:49:32Z
2020-09-13T07:51:45Z,42.805,6.029,13.2976,4.59974,2470.087,2020-9-13T09:52:36Z
2020-09-13T07:54:46Z,42.805,6.029,13.2974,4.59974,2470.11,2020-9-13T09:55:38Z
2020-09-13T07:57:49Z,42.805,6.029,13.2971,4.59973,2470.077,2020-9-13T09:58:41Z
2020-09-13T08:00:53Z,42.805,6.029,13.2971,4.59974,2470.077,2020-9-13T10:01:44Z
2020-09-13T08:03:56Z,42.805,6.029,13.2974,4.59974,2470.1,2020-9-13T10:04:48Z
2020-09-13T08:06:59Z,42.805,6.029,13.2970,4.59974,2470.077,2020-9-13T10:07:51Z
2020-09-13T08:10:03Z,42.805,6.029,13.2974,4.59974,2470.1,2020-9-13T10:10:55Z
2020-09-13T08:13:07Z,42.805,6.029,13.2972,4.59974,2470.1,2020-9-13T10:13:58Z
2020-09-13T08:16:10Z,42.805,6.029,13.2971,4.59975,2470.063,2020-9-13T10:17:02Z
2020-09-13T08:19:14Z,42.805,6.029,13.2972,4.59976,2470.063,2020-9-13T10:20:05Z
2020-09-13T08:22:17Z,42.805,6.029,13.2969,4.59975,2470.077,2020-9-13T10:23:09Z
2020-09-13T08:25:21Z,42.805,6.029,13.2975,4.59974,2470.1,2020-9-13T10:26:12Z
2020-09-13T08:28:23Z,42.805,6.029,13.2976,4.59976,2470.04,2020-9-13T10:29:14Z
2020-09-13T08:31:27Z,42.805,6.029,13.2973,4.59974,2470.087,2020-9-13T10:32:18Z
2020-09-13T08:34:29Z,42.805,6.029,13.2972,4.59974,2470.053,2020-9-13T10:35:21Z
2020-09-13T08:37:34Z,42.805,6.029,13.2975,4.59976,2470.063,2020-9-13T10:38:25Z
2020-09-13T08:40:36Z,42.805,6.029,13.2973,4.59975,2470.1,2020-9-13T10:41:28Z
2020-09-13T08:43:40Z,42.805,6.029,13.2969,4.59975,2470.063,2020-9-13T10:44:31Z
2020-09-13T08:46:43Z,42.805,6.029,13.2971,4.59974,2470.077,2020-9-13T10:47:34Z
2020-09-13T08:49:44Z,42.805,6.029,13.2974,4.59976,2470.077,2020-9-13T10:50:36Z
2020-09-13T08:52:47Z,42.805,6.029,13.2975,4.59975,2470.077,2020-9-13T10:53:38Z
2020-09-13T08:55:51Z,42.805,6.029,13.2974,4.59975,2470.04,2020-9-13T10:56:42Z
2020-09-13T08:58:56Z,42.805,6.029,13.2972,4.59974,2470.053,2020-9-13T10:59:47Z
2020-09-13T09:01:59Z,42.805,6.029,13.2968,4.59974,2470.04,2020-9-13T11:02:51Z
2020-09-13T09:05:03Z,42.805,6.029,13.2971,4.59975,2470.053,2020-9-13T11:05:55Z
2020-09-13T09:08:04Z,42.805,6.029,13.2972,4.59975,2470.04,2020-9-13T11:08:56Z
2020-09-13T09:11:07Z,42.805,6.029,13.2969,4.59973,2470.04,2020-9-13T11:11:59Z
2020-09-13T09:14:11Z,42.805,6.029,13.2973,4.59975,2470.087,2020-9-13T11:15:03Z
2020-09-13T09:17:14Z,42.805,6.029,13.2971,4.59976,2470.063,2020-9-13T11:18:05Z
2020-09-13T09:20:16Z,42.805,6.029,13.2972,4.59975,2470.063,2020-9-13T11:21:08Z
2020-09-13T09:23:19Z,42.805,6.029,13.2970,4.59974,2470.063,2020-9-13T11:24:11Z
2020-09-13T09:26:21Z,42.805,6.029,13.2974,4.59974,2470.04,2020-9-13T11:27:12Z
2020-09-13T09:29:23Z,42.805,6.029,13.2976,4.59975,2470.063,2020-9-13T11:30:15Z
2020-09-13T09:32:25Z,42.805,6.029,13.2976,4.59976,2470.04,2020-9-13T11:33:16Z
2020-09-13T09:35:28Z,42.805,6.029,13.2973,4.59974,2470.03,2020-9-13T11:36:20Z
2020-09-13T09:38:30Z,42.805,6.029,13.2968,4.59973,2470.053,2020-9-13T11:39:21Z
2020-09-13T09:41:33Z,42.805,6.029,13.2976,4.59974,2470.04,2020-9-13T11:42:24Z
2020-09-13T09:44:36Z,42.805,6.029,13.2972,4.59973,2470.063,2020-9-13T11:45:28Z
2020-09-13T09:47:40Z,42.805,6.029,13.2971,4.59973,2470.063,2020-9-13T11:48:32Z
2020-09-13T09:50:44Z,42.805,6.029,13.2970,4.59973,2470.087,2020-9-13T11:51:36Z
2020-09-13T09:53:48Z,42.805,6.029,13.2973,4.59974,2470.063,2020-9-13T11:54:39Z
2020-09-13T09:56:51Z,42.805,6.029,13.2974,4.59974,2470.063,2020-9-13T11:57:42Z
2020-09-13T09:59:55Z,42.805,6.029,13.2973,4.59975,2470.04,2020-9-13T12:00:47Z
2020-09-13T10:02:59Z,42.805,6.029,13.2970,4.59975,2470.04,2020-9-13T12:03:50Z
2020-09-13T10:06:02Z,42.805,6.029,13.2970,4.59976,2470.04,2020-9-13T12:06:54Z
2020-09-13T10:09:06Z,42.805,6.029,13.2973,4.59974,2470.077,2020-9-13T12:09:57Z
2020-09-13T10:12:09Z,42.805,6.029,13.2975,4.59974,2470.04,2020-9-13T12:13:00Z
2020-09-13T10:15:12Z,42.805,6.029,13.2973,4.59973,2470.017,2020-9-13T12:16:03Z
2020-09-13T10:18:15Z,42.805,6.029,13.2974,4.59973,2470.063,2020-9-13T12:19:07Z
2020-09-13T10:21:19Z,42.805,6.029,13.2973,4.59975,2470.063,2020-9-13T12:22:10Z
2020-09-13T10:24:23Z,42.805,6.029,13.2974,4.59975,2470.049,2020-9-13T12:25:15Z
2020-09-13T10:27:26Z,42.805,6.029,13.2974,4.59975,2470.04,2020-9-13T12:28:17Z
2020-09-13T10:30:28Z,42.805,6.029,13.2973,4.59973,2470.1,2020-9-13T12:31:19Z
2020-09-13T10:33:29Z,42.805,6.029,13.2971,4.59973,2470.063,2020-9-13T12:34:20Z
2020-09-13T10:36:32Z,42.805,6.029,13.2974,4.59975,2470.077,2020-9-13T12:37:24Z
2020-09-13T10:39:35Z,42.805,6.029,13.2975,4.59974,2470.063,2020-9-13T12:40:26Z
2020-09-13T10:42:39Z,42.805,6.029,13.2974,4.59973,2470.077,2020-9-13T12:43:30Z
2020-09-13T10:45:42Z,42.805,6.029,13.2971,4.59974,2470.04,2020-9-13T12:46:34Z
2020-09-13T10:48:46Z,42.805,6.029,13.2974,4.59974,2470.04,2020-9-13T12:49:37Z
2020-09-13T10:51:49Z,42.805,6.029,13.2975,4.59976,2470.073,2020-9-13T12:52:41Z
2020-09-13T10:54:51Z,42.805,6.029,13.2973,4.59974,2470.03,2020-9-13T12:55:43Z
2020-09-13T10:57:54Z,42.805,6.029,13.2974,4.59973,2470.053,2020-9-13T12:58:46Z
2020-09-13T11:00:59Z,42.805,6.029,13.2972,4.59973,2470.053,2020-9-13T13:01:51Z
2020-09-13T11:04:04Z,42.805,6.029,13.2971,4.59974,2470.063,2020-9-13T13:04:55Z
2020-09-13T11:07:08Z,42.805,6.029,13.2976,4.59973,2470.04,2020-9-13T13:07:59Z
2020-09-13T11:10:09Z,42.805,6.029,13.2972,4.59975,2470.063,2020-9-13T13:11:00Z
2020-09-13T11:13:13Z,42.805,6.029,13.2974,4.59973,2470.077,2020-9-13T13:14:05Z
2020-09-13T11:16:18Z,42.805,6.029,13.2969,4.59974,2470.077,2020-9-13T13:17:09Z
2020-09-13T11:19:21Z,42.805,6.029,13.2974,4.59974,2470.017,2020-9-13T13:20:13Z
2020-09-13T11:22:22Z,42.805,6.029,13.2971,4.59974,2470.063,2020-9-13T13:23:14Z
2020-09-13T11:25:24Z,42.805,6.029,13.2970,4.59974,2470.04,2020-9-13T13:26:16Z
2020-09-13T11:28:28Z,42.805,6.029,13.2971,4.59975,2470.063,2020-9-13T13:29:19Z
2020-09-13T11:31:29Z,42.805,6.029,13.2975,4.59976,2470.053,2020-9-13T13:32:21Z
2020-09-13T11:34:33Z,42.805,6.029,13.2968,4.59974,2470.063,2020-9-13T13:35:24Z
2020-09-13T11:37:36Z,42.805,6.029,13.2975,4.59975,2470.053,2020-9-13T13:38:27Z
2020-09-13T11:40:39Z,42.805,6.029,13.2974,4.59973,2470.04,2020-9-13T13:41:31Z
2020-09-13T11:43:43Z,42.805,6.029,13.2971,4.59975,2470.124,2020-9-13T13:44:34Z
2020-09-13T11:46:46Z,42.805,6.029,13.2972,4.59975,2470.04,2020-9-13T13:47:37Z
2020-09-13T11:49:49Z,42.805,6.029,13.2976,4.59974,2470.053,2020-9-13T13:50:41Z
2020-09-13T11:52:53Z,42.805,6.029,13.2974,4.59974,2470.063,2020-9-13T13:53:44Z
2020-09-13T11:55:57Z,42.805,6.029,13.2973,4.59975,2470.026,2020-9-13T13:56:47Z
2020-09-13T11:58:57Z,42.805,6.029,13.2972,4.59974,2470.063,2020-9-13T13:59:48Z
2020-09-13T12:02:00Z,42.805,6.029,13.2970,4.59974,2470.077,2020-9-13T14:02:52Z
2020-09-13T12:05:05Z,42.805,6.029,13.2972,4.59973,2470.087,2020-9-13T14:05:56Z
2020-09-13T12:08:08Z,42.805,6.029,13.2972,4.59974,2470.053,2020-9-13T14:08:59Z
2020-09-13T12:11:10Z,42.805,6.029,13.2970,4.59973,2470.087,2020-9-13T14:12:01Z
2020-09-13T12:14:13Z,42.805,6.029,13.2974,4.59973,2470.063,2020-9-13T14:15:04Z
2020-09-13T12:17:17Z,42.805,6.029,13.2971,4.59973,2470.053,2020-9-13T14:18:09Z
2020-09-13T12:20:19Z,42.805,6.029,13.2971,4.59975,2470.049,2020-9-13T14:21:10Z
2020-09-13T12:23:22Z,42.805,6.029,13.2973,4.59973,2470.087,2020-9-13T14:24:13Z
2020-09-13T12:26:26Z,42.805,6.029,13.2971,4.59973,2470.077,2020-9-13T14:27:18Z
2020-09-13T12:29:29Z,42.805,6.029,13.2968,4.59974,2470.063,2020-9-13T14:30:21Z
2020-09-13T12:32:34Z,42.805,6.029,13.2974,4.59975,2470.1,2020-9-13T14:33:26Z
2020-09-13T12:35:38Z,42.805,6.029,13.2971,4.59973,2470.077,2020-9-13T14:36:30Z
2020-09-13T12:38:43Z,42.805,6.029,13.2972,4.59975,2470.04,2020-9-13T14:39:34Z
2020-09-13T12:41:47Z,42.805,6.029,13.2973,4.59974,2470.11,2020-9-13T14:42:39Z
2020-09-13T12:44:52Z,42.805,6.029,13.2971,4.59974,2470.087,2020-9-13T14:45:44Z
2020-09-13T12:47:55Z,42.805,6.029,13.2971,4.59974,2470.087,2020-9-13T14:48:47Z
2020-09-13T12:50:59Z,42.805,6.029,13.2971,4.59973,2470.087,2020-9-13T14:51:50Z
2020-09-13T12:54:02Z,42.805,6.029,13.2971,4.59973,2470.087,2020-9-13T14:54:54Z
2020-09-13T12:57:04Z,42.805,6.029,13.2973,4.59974,2470.087,2020-9-13T14:57:56Z
2020-09-13T13:00:07Z,42.805,6.029,13.2971,4.59973,2470.087,2020-9-13T15:00:58Z
2020-09-13T13:03:11Z,42.805,6.029,13.2971,4.59973,2470.1,2020-9-13T15:04:03Z
2020-09-13T13:06:15Z,42.805,6.029,13.2968,4.59975,2470.124,2020-9-13T15:07:06Z
2020-09-13T13:09:16Z,42.805,6.029,13.2973,4.59974,2470.11,2020-9-13T15:10:08Z
2020-09-13T13:12:20Z,42.805,6.029,13.2970,4.59974,2470.124,2020-9-13T15:13:11Z
2020-09-13T13:15:23Z,42.805,6.029,13.2970,4.59975,2470.11,2020-9-13T15:16:15Z
2020-09-13T13:18:28Z,42.805,6.029,13.2971,4.59975,2470.087,2020-9-13T15:19:19Z
2020-09-13T13:21:30Z,42.805,6.029,13.2968,4.59974,2470.147,2020-9-13T15:22:21Z
2020-09-13T13:24:33Z,42.805,6.029,13.2972,4.59974,2470.11,2020-9-13T15:25:25Z
2020-09-13T13:27:36Z,42.805,6.029,13.2973,4.59975,2470.11,2020-9-13T15:28:27Z
2020-09-13T13:30:39Z,42.805,6.029,13.2976,4.59973,2470.156,2020-9-13T15:31:31Z
2020-09-13T13:33:41Z,42.805,6.029,13.2974,4.59976,2470.11,2020-9-13T15:34:33Z
2020-09-13T13:36:43Z,42.805,6.029,13.2974,4.59974,2470.124,2020-9-13T15:37:35Z
2020-09-13T13:39:45Z,42.805,6.029,13.2972,4.59975,2470.156,2020-9-13T15:40:37Z
2020-09-13T13:42:48Z,42.805,6.029,13.2974,4.59974,2470.133,2020-9-13T15:43:40Z
2020-09-13T13:45:52Z,42.805,6.029,13.2975,4.59974,2470.156,2020-9-13T15:46:43Z
2020-09-13T13:48:57Z,42.805,6.029,13.2973,4.59975,2470.147,2020-9-13T15:49:48Z
2020-09-13T13:51:59Z,42.805,6.029,13.2974,4.59973,2470.147,2020-9-13T15:52:50Z
2020-09-13T13:55:01Z,42.805,6.029,13.2973,4.59974,2470.133,2020-9-13T15:55:52Z
2020-09-13T13:58:05Z,42.805,6.029,13.2971,4.59974,2470.133,2020-9-13T15:58:57Z
2020-09-13T14:01:09Z,42.805,6.029,13.2975,4.59974,2470.11,2020-9-13T16:02:00Z
2020-09-13T14:04:13Z,42.805,6.029,13.2976,4.59974,2470.171,2020-9-13T16:05:04Z
2020-09-13T14:07:16Z,42.805,6.029,13.2971,4.59975,2470.133,2020-9-13T16:08:07Z
2020-09-13T14:10:18Z,42.805,6.029,13.2975,4.59974,2470.133,2020-9-13T16:11:10Z
2020-09-13T14:13:21Z,42.805,6.029,13.2974,4.59973,2470.171,2020-9-13T16:14:13Z
2020-09-13T14:16:23Z,42.805,6.029,13.2974,4.59975,2470.133,2020-9-13T16:17:15Z
2020-09-13T14:19:26Z,42.805,6.029,13.2973,4.59973,2470.147,2020-9-13T16:20:18Z
2020-09-13T14:22:30Z,42.805,6.029,13.2972,4.59974,2470.156,2020-9-13T16:23:21Z
2020-09-13T14:25:31Z,42.805,6.029,13.2971,4.59974,2470.147,2020-9-13T16:26:23Z
2020-09-13T14:28:33Z,42.805,6.029,13.2970,4.59973,2470.133,2020-9-13T16:29:25Z
2020-09-13T14:31:37Z,42.805,6.029,13.2972,4.59974,2470.171,2020-9-13T16:32:29Z
2020-09-13T14:34:40Z,42.805,6.029,13.2971,4.59976,2470.18,2020-9-13T16:35:31Z
2020-09-13T14:37:44Z,42.805,6.029,13.2974,4.59973,2470.156,2020-9-13T16:38:36Z
2020-09-13T14:40:47Z,42.805,6.029,13.2973,4.59973,2470.156,2020-9-13T16:41:38Z
2020-09-13T14:43:52Z,42.805,6.029,13.2971,4.59974,2470.156,2020-9-13T16:44:43Z
2020-09-13T14:46:54Z,42.805,6.029,13.2972,4.59973,2470.18,2020-9-13T16:47:46Z
2020-09-13T14:49:59Z,42.805,6.029,13.2972,4.59974,2470.171,2020-9-13T16:50:51Z
2020-09-13T14:53:00Z,42.805,6.029,13.2968,4.59973,2470.156,2020-9-13T16:53:52Z
2020-09-13T14:56:03Z,42.805,6.029,13.2975,4.59974,2470.147,2020-9-13T16:56:54Z
2020-09-13T14:59:07Z,42.805,6.029,13.2969,4.59974,2470.194,2020-9-13T16:59:58Z
2020-09-13T15:02:10Z,42.805,6.029,13.2972,4.59973,2470.171,2020-9-13T17:03:01Z
2020-09-13T15:05:13Z,42.805,6.029,13.2972,4.59974,2470.18,2020-9-13T17:06:05Z
2020-09-13T15:08:17Z,42.805,6.029,13.2974,4.59975,2470.203,2020-9-13T17:09:08Z
2020-09-13T15:11:18Z,42.805,6.029,13.2972,4.59973,2470.18,2020-9-13T17:12:10Z
2020-09-13T15:14:22Z,42.805,6.029,13.2971,4.59974,2470.171,2020-9-13T17:15:14Z
2020-09-13T15:17:27Z,42.805,6.029,13.2971,4.59973,2470.18,2020-9-13T17:18:19Z